Weather in Znamenka

Russia / Kirov Oblast     57°14′42″N   47°49′53″E
temp.,
°C
wind,
m/s
gust,
m/s
humid.,
%
clouds,
%
prec.,
mm/h
press.,
hPa
HPBL,
m
18 may, tue
tue1800:00+16ene33765 0.0 101831
03:00+15ene348143 0.1 101850
06:00+17e487983 0.0 1018201
09:00+22ese456367 0.0 1019702
12:00+24e445471 0.0 1019996
15:00+25e45505 0.0 10191096
18:00+22e48636 0.0 1018264
21:00+17e411725 0.0 1019196
19 may, wed
wed1900:00+15ese411748 0.0 1019204
03:00+14ese3107756 0.0 1019166
06:00+16se4117586 0.0 1019339
09:00+21ese69585 0.0 1019795
12:00+24ese68475 0.0 10191389
15:00+25se57441 0.0 10181606
18:00+22se49585 0.0 1018309
21:00+16ese411735 0.0 1018189
20 may, thu
thu2000:00+16se514711 0.0 1018298
03:00+14se4127728 0.0 1018228
06:00+17se4127316 0.0 1018361
09:00+22se6954100 0.0 1017899
12:00+24se710404 0.0 10161685
15:00+25se79430 0.0 10161740
18:00+21se611530 0.0 1015471
21:00+18se514600 0.0 1015344
21 may, fri
fri2100:00+16se5136441 0.0 1014286
03:00+15sse51064100 0.0 1013276
06:00+16sse5127296 0.2 1013470
09:00+19s6865100 0.3 10131000
12:00+21s8115954 0.6 10131913
15:00+22ssw7114979 1.0 10122260
18:00+19ssw71165100 0.1 10121010
21:00+13sw4118658 0.8 1014318
22 may, sat
sat2200:00+11sw613855 0.0 1015574
03:00+11sw51182100 0.0 1017869
06:00+12wsw5982100 0.0 1019887
09:00+14wsw6772100 0.0 1020970
12:00+15wsw6864100 0.0 10221159
15:00+16wsw5658100 0.0 10211159
18:00+15sw4866100 0.0 1022484
21:00+11ssw2293100 0.0 102136